Hourly Data Report for October 06, 2017

All times are specified in Local Standard Time (LST). Add 1 hour to adjust for Daylight Saving Time where and when it is observed.

MIRAMICHI RCS
NEW BRUNSWICK

47°00'34.000" N
65°27'54.000" W
33.00 m
8100989
71744
ACQ

Download Data

Hourly Data (October 2017)
Hourly Data Report for October 6, 2017
Temp Definition
°C
Dew Point Temp Definition
°C
Rel Hum Definition
%
Wind Dir Definition
10's deg

Wind Spd Definition
km/h
Visibility Definition
km
Stn Press Definition
kPa
Hmdx Definition


Wind Chill Definition


Weather Definition


TIME
00:00 13.7 7.0 64 24 20   100.64     LegendNANA
01:00 13.1 7.6 69 28 11   100.72     LegendNANA
02:00 11.8 8.8 82 26 10   100.74     LegendNANA
03:00 11.7 8.7 82 26 10   100.72     LegendNANA
04:00 10.4 8.2 86 26 8   100.78     LegendNANA
05:00 9.5 7.4 87 25 12   100.85     LegendNANA
06:00 8.8 6.8 87 28 9   100.92     LegendNANA
07:00 7.9 6.3 89 26 8   101.00     LegendNANA
08:00 10.0 6.3 78 26 11   101.09     LegendNANA
09:00 12.0 5.9 66 26 12   101.13     LegendNANA
10:00 13.7 6.1 60 28 13   101.13     LegendNANA
11:00 14.5 6.3 58 24 12   101.07     LegendNANA
12:00 15.1 6.2 55 25 16   101.03     LegendNANA
13:00 15.7 4.8 48 27 18   100.98     LegendNANA
14:00 16.0 4.9 48 26 19   100.95     LegendNANA
15:00 16.6 5.0 46 25 17   100.95     LegendNANA
16:00 15.6 5.0 49 28 15   100.98     LegendNANA
17:00 14.9 4.6 50 32 6   100.97     LegendNANA
18:00 12.4 5.2 62 29 8   101.07     LegendNANA
19:00 8.5 5.2 80 23 1   101.10     LegendNANA
20:00 7.7 5.3 85 26 3   101.21     LegendNANA
21:00 6.4 4.5 88 29 3   101.25     LegendNANA
22:00 4.7 3.4 91 25 5   101.36     LegendNANA
23:00 8.0 4.6 79 30 6   101.44     LegendNANA

Notes on Data Quality.

Legend

  • E = Estimated
  • M = Missing
  • NA = Not Available
  • ‡ = Partner data that is not subject to review by the National Climate Archives
Date modified: